Hourly Weather Molodozhnyy

Today, 4 July, Saturday

Time Temperature Precipitation Wind Pressure Humidity
00:00 +20°C° 0 mm 2 mps 742 mmHg 90%
01:00 +20°C° 0 mm 2 mps 742 mmHg 91%
02:00 +20°C° 0 mm 2 mps 742 mmHg 92%
03:00 +19°C° 0 mm 3 mps 742 mmHg 92%
04:00 +20°C° 0 mm 3 mps 742 mmHg 91%
05:00 +20°C° 0 mm 3 mps 742 mmHg 91%
06:00 +20°C° 0 mm 3 mps 742 mmHg 90%
07:00 +22°C° 0 mm 3 mps 742 mmHg 86%
08:00 +24°C° 0 mm 3 mps 742 mmHg 82%
09:00 +26°C° 0 mm 3 mps 742 mmHg 78%
10:00 +27°C° 0.2 mm 3 mps 742 mmHg 74%
11:00 +27°C° 0.2 mm 3 mps 742 mmHg 70%
12:00 +28°C° 0.2 mm 3 mps 742 mmHg 66%
13:00 +28°C° 0.3 mm 3 mps 742 mmHg 66%
14:00 +29°C° 0.3 mm 3 mps 742 mmHg 66%
15:00 +29°C° 0.3 mm 3 mps 742 mmHg 66%
16:00 +28°C° 0.5 mm 2 mps 742 mmHg 71%
17:00 +27°C° 0.5 mm 2 mps 741 mmHg 75%
18:00 +26°C° 0.5 mm 2 mps 741 mmHg 80%
19:00 +25°C° 0.2 mm 2 mps 741 mmHg 81%
20:00 +24°C° 0.2 mm 1 mps 741 mmHg 83%
21:00 +23°C° 0.2 mm 1 mps 742 mmHg 84%
22:00 +23°C° 0.1 mm 1 mps 742 mmHg 85%
23:00 +22°C° 0.1 mm 1 mps 741 mmHg 86%

Tomorrow, 5 July, Sunday

Time Temperature Precipitation Wind Pressure Humidity
00:00 +22°C° 0.1 mm 1 mps 741 mmHg 87%
01:00 +21°C° 0.3 mm 1 mps 741 mmHg 88%
02:00 +21°C° 0.3 mm 1 mps 741 mmHg 89%
03:00 +21°C° 0.3 mm 1 mps 741 mmHg 90%
04:00 +21°C° 0.2 mm 1 mps 741 mmHg 90%
05:00 +21°C° 0.2 mm 1 mps 741 mmHg 91%
06:00 +21°C° 0.2 mm 1 mps 741 mmHg 92%
07:00 +22°C° 0 mm 1 mps 741 mmHg 91%
08:00 +22°C° 0 mm 1 mps 741 mmHg 90%
09:00 +22°C° 0 mm 1 mps 742 mmHg 89%
10:00 +23°C° 0.1 mm 1 mps 741 mmHg 86%
11:00 +24°C° 0.1 mm 1 mps 741 mmHg 82%
12:00 +25°C° 0.1 mm 1 mps 741 mmHg 78%
13:00 +25°C° 0.5 mm 1 mps 741 mmHg 79%
14:00 +25°C° 0.5 mm 1 mps 741 mmHg 79%
15:00 +25°C° 0.5 mm 2 mps 741 mmHg 79%
16:00 +25°C° 0.5 mm 2 mps 741 mmHg 80%
17:00 +25°C° 0.5 mm 2 mps 740 mmHg 81%
18:00 +25°C° 0.5 mm 2 mps 740 mmHg 82%
19:00 +24°C° 0.1 mm 2 mps 740 mmHg 84%
20:00 +23°C° 0.1 mm 2 mps 741 mmHg 87%
21:00 +21°C° 0.1 mm 2 mps 741 mmHg 89%
22:00 +20°C° 0 mm 2 mps 741 mmHg 89%
23:00 +20°C° 0 mm 2 mps 741 mmHg 90%

Day after tomorrow, 6 July, Monday

Time Temperature Precipitation Wind Pressure Humidity
00:00 +19°C° 0 mm 2 mps 741 mmHg 91%
01:00 +19°C° 0 mm 2 mps 741 mmHg 91%
02:00 +20°C° 0 mm 1 mps 741 mmHg 90%
03:00 +19°C° 0 mm 1 mps 741 mmHg 90%
04:00 +20°C° 0 mm 1 mps 741 mmHg 90%
05:00 +20°C° 0 mm 1 mps 741 mmHg 89%
06:00 +21°C° 0 mm 1 mps 741 mmHg 88%
07:00 +22°C° 0 mm 1 mps 741 mmHg 84%
08:00 +23°C° 0 mm 1 mps 741 mmHg 79%
09:00 +25°C° 0 mm 1 mps 741 mmHg 75%
10:00 +26°C° 0 mm 1 mps 741 mmHg 71%
11:00 +26°C° 0 mm 1 mps 741 mmHg 68%
12:00 +27°C° 0 mm 1 mps 741 mmHg 64%
13:00 +28°C° 0 mm 2 mps 741 mmHg 63%
14:00 +28°C° 0 mm 2 mps 740 mmHg 63%
15:00 +29°C° 0 mm 2 mps 740 mmHg 62%
16:00 +29°C° 0.1 mm 2 mps 740 mmHg 65%
17:00 +28°C° 0.1 mm 2 mps 740 mmHg 68%
18:00 +28°C° 0.1 mm 2 mps 740 mmHg 71%
19:00 +27°C° 0 mm 1 mps 740 mmHg 75%
20:00 +25°C° 0 mm 1 mps 740 mmHg 79%
21:00 +24°C° 0 mm 1 mps 740 mmHg 83%
22:00 +23°C° 0 mm 1 mps 740 mmHg 85%
23:00 +22°C° 0 mm 1 mps 740 mmHg 86%

7 July, Tuesday

Time Temperature Precipitation Wind Pressure Humidity
00:00 +22°C° 0 mm 1 mps 740 mmHg 88%
01:00 +22°C° 0 mm 1 mps 740 mmHg 88%
02:00 +21°C° 0 mm 1 mps 740 mmHg 89%
03:00 +21°C° 0 mm 1 mps 740 mmHg 90%
04:00 +21°C° 0 mm 1 mps 740 mmHg 90%
05:00 +22°C° 0 mm 1 mps 740 mmHg 89%
06:00 +23°C° 0 mm 1 mps 740 mmHg 88%
07:00 +24°C° 0 mm 2 mps 739 mmHg 84%
08:00 +25°C° 0 mm 2 mps 739 mmHg 81%
09:00 +27°C° 0 mm 3 mps 739 mmHg 77%
10:00 +28°C° 0 mm 3 mps 739 mmHg 72%
11:00 +29°C° 0 mm 3 mps 739 mmHg 68%
12:00 +30°C° 0 mm 3 mps 739 mmHg 64%
13:00 +30°C° 0.1 mm 3 mps 738 mmHg 64%
14:00 +30°C° 0.1 mm 3 mps 738 mmHg 65%
15:00 +31°C° 0.1 mm 3 mps 738 mmHg 65%
16:00 +30°C° 0.9 mm 3 mps 738 mmHg 69%
17:00 +29°C° 0.9 mm 3 mps 738 mmHg 73%
18:00 +28°C° 0.9 mm 3 mps 737 mmHg 77%
19:00 +27°C° 0.7 mm 2 mps 737 mmHg 80%
20:00 +25°C° 0.7 mm 2 mps 738 mmHg 83%
21:00 +23°C° 0.7 mm 2 mps 738 mmHg 86%
22:00 +22°C° 1.2 mm 1 mps 738 mmHg 87%
23:00 +22°C° 1.2 mm 1 mps 738 mmHg 88%

8 July, Wednesday

Time Temperature Precipitation Wind Pressure Humidity
00:00 +21°C° 1.2 mm 1 mps 737 mmHg 89%
01:00 +21°C° 2.1 mm 1 mps 737 mmHg 89%
02:00 +21°C° 2.1 mm 1 mps 737 mmHg 90%
03:00 +21°C° 2.1 mm 1 mps 737 mmHg 90%
04:00 +21°C° 1 mm 1 mps 737 mmHg 92%
05:00 +20°C° 1 mm 2 mps 737 mmHg 93%
06:00 +20°C° 1 mm 2 mps 737 mmHg 95%
07:00 +20°C° 0.2 mm 3 mps 737 mmHg 94%
08:00 +20°C° 0.2 mm 4 mps 738 mmHg 93%
09:00 +21°C° 0.2 mm 4 mps 738 mmHg 92%
10:00 +20°C° 0.4 mm 5 mps 738 mmHg 92%
11:00 +20°C° 0.4 mm 5 mps 738 mmHg 91%
12:00 +20°C° 0.4 mm 6 mps 739 mmHg 90%
13:00 +20°C° 0.3 mm 6 mps 739 mmHg 89%
14:00 +19°C° 0.3 mm 5 mps 739 mmHg 87%
15:00 +19°C° 0.3 mm 5 mps 739 mmHg 86%
16:00 +19°C° 0 mm 5 mps 740 mmHg 86%
17:00 +19°C° 0 mm 5 mps 740 mmHg 85%
18:00 +18°C° 0 mm 4 mps 740 mmHg 85%
19:00 +18°C° 0 mm 4 mps 740 mmHg 87%
20:00 +17°C° 0 mm 4 mps 740 mmHg 89%
21:00 +16°C° 0 mm 3 mps 741 mmHg 91%
22:00 +14°C° 0 mm 3 mps 741 mmHg 92%
23:00 +14°C° 0 mm 3 mps 741 mmHg 92%

9 July, Thursday

Time Temperature Precipitation Wind Pressure Humidity
00:00 +14°C° 0 mm 2 mps 741 mmHg 92%
01:00 +14°C° 0 mm 2 mps 741 mmHg 93%
02:00 +13°C° 0 mm 2 mps 741 mmHg 93%
03:00 +13°C° 0 mm 2 mps 741 mmHg 93%
04:00 +13°C° 0 mm 2 mps 741 mmHg 92%
05:00 +14°C° 0 mm 2 mps 741 mmHg 92%
06:00 +14°C° 0 mm 2 mps 741 mmHg 91%
07:00 +15°C° 0 mm 2 mps 741 mmHg 86%
08:00 +17°C° 0 mm 2 mps 741 mmHg 82%
09:00 +18°C° 0 mm 2 mps 741 mmHg 77%
10:00 +19°C° 0.1 mm 3 mps 741 mmHg 73%
11:00 +20°C° 0.1 mm 3 mps 741 mmHg 70%
12:00 +21°C° 0.1 mm 4 mps 741 mmHg 66%
13:00 +20°C° 0.2 mm 4 mps 741 mmHg 66%
14:00 +20°C° 0.2 mm 5 mps 741 mmHg 66%
15:00 +20°C° 0.2 mm 5 mps 741 mmHg 66%
16:00 +20°C° 0.4 mm 5 mps 741 mmHg 69%
17:00 +19°C° 0.4 mm 5 mps 741 mmHg 72%
18:00 +19°C° 0.4 mm 5 mps 741 mmHg 75%
19:00 +17°C° 0.1 mm 4 mps 741 mmHg 79%
20:00 +15°C° 0.1 mm 4 mps 741 mmHg 83%
21:00 +13°C° 0.1 mm 3 mps 741 mmHg 88%
22:00 +13°C° 0 mm 3 mps 741 mmHg 89%
23:00 +12°C° 0 mm 3 mps 742 mmHg 90%
Show more